(289838) = 2005 LK26

Discovered at Kitt Peak on 2005-06-08 by Spacewatch.

Orbit

Orbit type: Jupiter Trojan

Note: WebGL enabled browser required.

epoch2023-02-25.0
epoch JD2460000.5
perihelion date2018-08-16.45626
perihelion JD2458346.95626
argument of perihelion (°)99.30564
ascending node (°)191.98375
inclination (°)12.14903
eccentricity0.0797640
perihelion distance (AU)4.7851132
Tisserand w.r.t. Jupiter2.9
ΔV w.r.t. Earth (km/sec)12.7
semimajor axis (AU)5.1998759
mean anomaly (°)137.44536
mean daily motion (°/day)0.08312170
aphelion distance (AU)5.615
period (years)11.86
P-vector [x]0.35848963
P-vector [y]-0.91764821
P-vector [z]-0.17148452
Q-vector [x]0.93251043
Q-vector [y]0.34340460
Q-vector [z]0.11179259
absolute magnitude13.8
phase slope0.15
uncertainty0
referenceMPO 730304
observations used376
oppositions14
arc length (days)6850
first opposition used2004
last opposition used2023
residual rms (arc-secs)0.70
perturbers coarse indicatorM-v
perturbers precise indicator003Ek
first observation date used2004-04-14.0
last observation date used2023-01-15.0
computer nameMPCLINUX
JD of orbit computation2456731.621406
perihelion JD uncertainty (days)1.3116E-03
argument of perihelion uncertainty (°)8.9255E-05
ascending node uncertainty (°)1.9208E-05
inclination uncertainty (°)4.3356E-06
eccentricity uncertainty 3.8690E-08
perihelion distance uncertainty (AU)2.9417E-07
Minimum Orbit Intersection Distances (in AU)
for orbit epoch: 2460000.5, reference: E2023-B04
Mercury4.35506
Venus4.08232
Earth3.79601
Mars3.40158
Jupiter0.18063
Saturn3.72687
Uranus13.0473
Neptune24.5377

Observations

379 total observations over interval: 2004 04 14.37646 – 2023 01 15.265832
These data are available for download (format description).

Date (UT) J2000 RA J2000 Dec Magn Location Ref
2004 04 14.37646 13 54 59.97 -07 12 24.7 20.5 V 691 – Steward Observatory, Kitt Peak-Spacewatch MPS 255867
2004 04 14.40324 13 54 59.20 -07 12 18.4 20.8 V 691 – Steward Observatory, Kitt Peak-Spacewatch MPS 255867
2004 04 14.43154 13 54 58.41 -07 12 11.5 20.9 V 691 – Steward Observatory, Kitt Peak-Spacewatch MPS 255867
2005 05 08.34776 16 27 54.60 -09 51 26.1 21.2 V 691 – Steward Observatory, Kitt Peak-Spacewatch MPS 136583
2005 05 08.36533 16 27 54.15 -09 51 22.6 20.9 V 691 – Steward Observatory, Kitt Peak-Spacewatch MPS 136583
2005 05 08.38283 16 27 53.65 -09 51 19.1 20.5 V 691 – Steward Observatory, Kitt Peak-Spacewatch MPS 136583
2005 06 08.28884 16 12 25.27 -08 38 41.7 20.5 V 691 – Steward Observatory, Kitt Peak-Spacewatch MPS 136583
2005 06 08.30619 16 12 24.75 -08 38 39.9 20.7 V 691 – Steward Observatory, Kitt Peak-Spacewatch MPS 136583
2005 06 08.32354 16 12 24.22 -08 38 38.5 20.5 V 691 – Steward Observatory, Kitt Peak-Spacewatch MPS 136583
2005 06 13.29029 16 10 01.47 -08 31 44.4 20.5 V 691 – Steward Observatory, Kitt Peak-Spacewatch MPS 136583
2005 06 13.30771 16 10 00.96 -08 31 42.8 20.5 V 691 – Steward Observatory, Kitt Peak-Spacewatch MPS 136583
2005 06 13.32513 16 10 00.49 -08 31 41.8 20.6 V 691 – Steward Observatory, Kitt Peak-Spacewatch MPS 136583
2005 06 17.30022 16 08 12.83 -08 27 20.7 20.6 V 691 – Steward Observatory, Kitt Peak-Spacewatch MPS 136583
2005 06 17.31756 16 08 12.35 -08 27 19.2 20.8 V 691 – Steward Observatory, Kitt Peak-Spacewatch MPS 136583
2005 06 17.33490 16 08 11.89 -08 27 18.7 20.6 V 691 – Steward Observatory, Kitt Peak-Spacewatch MPS 136583
2005 06 30.16011 16 03 18.04 -08 20 33.1 20.8 V 691 – Steward Observatory, Kitt Peak-Spacewatch MPS 137105
2005 06 30.17563 16 03 17.73 -08 20 33.1 20.9 V 691 – Steward Observatory, Kitt Peak-Spacewatch MPS 137105
2005 06 30.19114 16 03 17.41 -08 20 32.9 21.0 V 691 – Steward Observatory, Kitt Peak-Spacewatch MPS 137105
2007 09 20.11538 21 16 34.50 -04 54 17.1 20.5 V 691 – Steward Observatory, Kitt Peak-Spacewatch MPS 255867
2007 09 20.13131 21 16 34.26 -04 54 20.8 20.6 V 691 – Steward Observatory, Kitt Peak-Spacewatch MPS 255867
2007 09 20.14724 21 16 34.01 -04 54 24.2 20.9 V 691 – Steward Observatory, Kitt Peak-Spacewatch MPS 255867
2008 09 02.26856 00 05 31.92 +04 27 16.4 21.0 V 691 – Steward Observatory, Kitt Peak-Spacewatch MPS 255867
2008 09 02.28612 00 05 31.49 +04 27 12.6 20.8 V 691 – Steward Observatory, Kitt Peak-Spacewatch MPS 255867
2008 09 02.30368 00 05 31.07 +04 27 08.7 20.6 V 691 – Steward Observatory, Kitt Peak-Spacewatch MPS 255867
2008 09 06.29180 00 03 53.24 +04 11 55.1   691 – Steward Observatory, Kitt Peak-Spacewatch MPS 255867
2008 09 06.30939 00 03 52.76 +04 11 50.8   691 – Steward Observatory, Kitt Peak-Spacewatch MPS 255867
2008 09 06.32697 00 03 52.30 +04 11 46.4   691 – Steward Observatory, Kitt Peak-Spacewatch MPS 255867
2008 10 23.20140 23 44 20.86 +00 52 28.1 20.8 V G96 – Mt. Lemmon Survey MPS 260603
2008 10 23.20936 23 44 20.68 +00 52 26.4 20.7 V G96 – Mt. Lemmon Survey MPS 260603
2008 10 23.21734 23 44 20.58 +00 52 24.6 20.7 V G96 – Mt. Lemmon Survey MPS 260603
2008 10 23.22535 23 44 20.43 +00 52 22.6 20.4 V G96 – Mt. Lemmon Survey MPS 260603
2009 09 15.45611 02 26 25.17 +09 53 31.3 20.9 V 691 – Steward Observatory, Kitt Peak-Spacewatch MPS 294997
2009 09 15.47381 02 26 24.94 +09 53 28.1 20.8 V 691 – Steward Observatory, Kitt Peak-Spacewatch MPS 294997
2009 09 15.49150 02 26 24.66 +09 53 24.8 20.8 V 691 – Steward Observatory, Kitt Peak-Spacewatch MPS 294997
2009 09 27.41714 02 23 06.37 +09 15 08.3 20.8 V 691 – Steward Observatory, Kitt Peak-Spacewatch MPS 296916
2009 09 27.43490 02 23 06.03 +09 15 04.2 20.9 V 691 – Steward Observatory, Kitt Peak-Spacewatch MPS 296916
2009 09 27.45253 02 23 05.68 +09 15 00.4 21.0 V 691 – Steward Observatory, Kitt Peak-Spacewatch MPS 296916
2009 10 25.27012 02 11 09.74 +07 30 34.5 20.6 V G96 – Mt. Lemmon Survey MPS 300664
2009 10 25.27572 02 11 09.60 +07 30 32.9 20.4 V G96 – Mt. Lemmon Survey MPS 300664
2009 10 25.28119 02 11 09.42 +07 30 32.0 20.6 V G96 – Mt. Lemmon Survey MPS 300664
2009 10 25.28681 02 11 09.24 +07 30 30.6 20.7 V G96 – Mt. Lemmon Survey MPS 300664
2013 01 04.27892 08 07 08.73 +06 01 21.3 22.2 r W84 – Cerro Tololo-DECam MPS 469803
2013 01 04.28928 08 07 08.43 +06 01 21.8 22.3 r W84 – Cerro Tololo-DECam MPS 469803
2013 01 04.29973 08 07 08.13 +06 01 22.5 22.1 r W84 – Cerro Tololo-DECam MPS 469803
2013 01 05.25565 08 06 41.18 +06 02 17.3 22.2 r W84 – Cerro Tololo-DECam MPS 469803
2013 01 05.26614 08 06 40.88 +06 02 18.0 22.2 r W84 – Cerro Tololo-DECam MPS 469803
2013 01 05.27650 08 06 40.58 +06 02 18.6 22.1 r W84 – Cerro Tololo-DECam MPS 469803
2013 01 05.28709 08 06 40.27 +06 02 19.2 22.2 r W84 – Cerro Tololo-DECam MPS 469803
2013 01 06.27605 08 06 12.08 +06 03 19.9 22.1 r W84 – Cerro Tololo-DECam MPS 469803
2013 01 06.28658 08 06 11.77 +06 03 20.6 22.0 r W84 – Cerro Tololo-DECam MPS 469803
2013 01 06.29701 08 06 11.47 +06 03 21.2 22.1 r W84 – Cerro Tololo-DECam MPS 469803
2013 01 06.30749 08 06 11.16 +06 03 21.9 22.2 r W84 – Cerro Tololo-DECam MPS 469803
2013 01 07.25058 08 05 44.06 +06 04 23.4 21.8 r W84 – Cerro Tololo-DECam MPS 469803
2013 01 07.26094 08 05 43.75 +06 04 24.0 21.8 r W84 – Cerro Tololo-DECam MPS 469803
2013 01 07.27133 08 05 43.45 +06 04 24.7 21.7 r W84 – Cerro Tololo-DECam MPS 469803
2013 01 07.28178 08 05 43.14 +06 04 25.4 21.8 r W84 – Cerro Tololo-DECam MPS 469803
2013 01 20.24513 07 59 15.57 +06 23 57.9 21.6 V G96 – Mt. Lemmon Survey MPS 453126
2013 01 20.25244 07 59 15.36 +06 23 58.4 21.2 V G96 – Mt. Lemmon Survey MPS 453126
2013 01 20.25981 07 59 15.07 +06 23 59.1 21.2 V G96 – Mt. Lemmon Survey MPS 453126
2013 01 20.26725 07 59 14.89 +06 24 00.0 21.5 V G96 – Mt. Lemmon Survey MPS 453126
2014 01 24.49062 10 01 58.979 +01 08 11.35 20.8 z F51 – Pan-STARRS 1, Haleakala MPS 500081
2014 01 24.49358 10 01 58.910 +01 08 11.74 20.7 z F51 – Pan-STARRS 1, Haleakala MPS 500081
2014 01 24.50245 10 01 58.705 +01 08 12.76 20.8 z F51 – Pan-STARRS 1, Haleakala MPS 500081
2014 01 24.50540 10 01 58.618 +01 08 13.10 20.7 z F51 – Pan-STARRS 1, Haleakala MPS 500081
2014 01 24.50836 10 01 58.546 +01 08 13.49 20.8 z F51 – Pan-STARRS 1, Haleakala MPS 500081
2014 01 24.51133 10 01 58.475 +01 08 13.81 20.8 z F51 – Pan-STARRS 1, Haleakala MPS 500081
2014 01 25.54018 10 01 34.026 +01 10 16.97 21.5 g F51 – Pan-STARRS 1, Haleakala MPS 500081
2014 01 25.54173 10 01 33.985 +01 10 17.09 21.5 g F51 – Pan-STARRS 1, Haleakala MPS 500081
2014 01 25.54329 10 01 33.938 +01 10 17.33 21.6 g F51 – Pan-STARRS 1, Haleakala MPS 500081
2014 01 25.54639 10 01 33.872 +01 10 17.71 21.5 g F51 – Pan-STARRS 1, Haleakala MPS 500081
2014 01 25.54795 10 01 33.828 +01 10 17.84 21.4 g F51 – Pan-STARRS 1, Haleakala MPS 500081
2014 01 25.54951 10 01 33.788 +01 10 18.16 21.6 g F51 – Pan-STARRS 1, Haleakala MPS 500081
2014 01 25.55105 10 01 33.758 +01 10 18.33 21.6 g F51 – Pan-STARRS 1, Haleakala MPS 500081
2014 01 25.55317 10 01 33.697 +01 10 18.52 20.9 r F51 – Pan-STARRS 1, Haleakala MPS 500081
2014 01 25.55472 10 01 33.669 +01 10 18.77 21.0 r F51 – Pan-STARRS 1, Haleakala MPS 500081
2014 01 25.55627 10 01 33.620 +01 10 19.03 21.0 r F51 – Pan-STARRS 1, Haleakala MPS 500081
2014 01 25.55783 10 01 33.585 +01 10 19.05 21.0 r F51 – Pan-STARRS 1, Haleakala MPS 500081
2014 01 25.56096 10 01 33.504 +01 10 19.44 21.0 r F51 – Pan-STARRS 1, Haleakala MPS 500081
2014 01 25.56251 10 01 33.470 +01 10 19.69 21.0 r F51 – Pan-STARRS 1, Haleakala MPS 500081
2014 01 25.56407 10 01 33.433 +01 10 19.95 21.1 r F51 – Pan-STARRS 1, Haleakala MPS 500081
2014 01 26.44395 10 01 12.266 +01 12 09.39 21.3 w F51 – Pan-STARRS 1, Haleakala MPS 500081
2014 01 26.45634 10 01 11.953 +01 12 10.91 21.2 w F51 – Pan-STARRS 1, Haleakala MPS 500081
2014 01 26.46876 10 01 11.642 +01 12 12.42 21.1 w F51 – Pan-STARRS 1, Haleakala MPS 500081
2014 01 26.48122 10 01 11.329 +01 12 14.04 21.1 w F51 – Pan-STARRS 1, Haleakala MPS 500081
2014 01 26.55835 10 01 09.395 +01 12 23.82 20.6 i F51 – Pan-STARRS 1, Haleakala MPS 500081
2014 01 26.56725 10 01 09.175 +01 12 24.90 20.7 i F51 – Pan-STARRS 1, Haleakala MPS 500081
